EDT,Max TemperatureF,Mean TemperatureF,Min TemperatureF,Max Dew PointF,MeanDew PointF,Min DewpointF,Max Humidity, Mean Humidity, Min Humidity, Max Sea Level PressureIn, Mean Sea Level PressureIn, Min Sea Level PressureIn, Max VisibilityMiles, Mean VisibilityMiles, Min VisibilityMiles, Max Wind SpeedMPH, Mean Wind SpeedMPH, Max Gust SpeedMPH,PrecipitationIn, CloudCover, Events, WindDirDegrees
2013-8-1,81,73,64,67,64,62,93,74,54,29.96,29.86,29.78,10,9,2,15,3,23,0.01,7,Rain,180
2013-8-2,82,70,58,63,57,52,93,68,42,29.94,29.89,29.86,10,10,5,16,5,23,0.00,1,,265
2013-8-3,84,73,61,64,58,49,93,62,31,29.93,29.90,29.85,10,9,6,14,3,23,0.12,4,Rain,297
2013-8-4,78,67,56,56,52,49,93,66,38,30.04,29.96,29.92,10,10,10,15,5,21,0.00,2,,303
2013-8-5,76,65,53,56,51,46,89,63,36,30.12,30.06,30.02,10,10,10,10,4,14,0.00,1,,267
2013-8-6,78,66,54,59,55,51,86,67,48,30.08,30.06,30.03,10,10,10,16,4,28,0.00,6,,126
2013-8-7,77,71,65,68,64,60,87,80,73,30.07,30.03,29.96,10,8,2,20,6,26,0.01,7,Rain,114
2013-8-8,85,75,64,70,66,61,93,77,61,30.04,29.99,29.93,10,10,7,15,6,22,0.01,6,,132
2013-8-9,83,76,68,72,71,68,93,81,69,29.94,29.87,29.82,10,8,0,15,4,22,1.18,6,Fog-Rain-Thunderstorm,280
2013-8-10,85,73,61,66,59,52,93,64,34,30.08,30.01,29.95,10,10,7,15,6,20,0.00,1,,288
2013-8-11,79,69,58,63,57,54,87,67,47,30.15,30.08,30.01,10,10,10,8,1,13,T,5,,65
2013-8-12,84,72,59,64,59,54,93,66,39,30.05,30.00,29.91,10,10,10,16,2,20,T,3,,243
2013-8-13,84,72,60,65,60,45,93,68,43,29.86,29.79,29.70,10,9,5,18,6,24,0.04,4,Rain-Thunderstorm,285
2013-8-14,74,63,52,48,46,44,77,58,38,30.09,29.95,29.87,10,10,10,21,8,28,0.00,3,,295
2013-8-15,77,62,47,54,48,44,93,63,33,30.19,30.13,30.07,10,10,10,10,3,15,0.00,1,,273
2013-8-16,79,65,51,56,51,46,89,61,32,30.21,30.17,30.14,10,10,10,9,2,16,0.00,2,,231
2013-8-17,80,67,54,63,53,48,93,64,35,30.30,30.25,30.21,10,10,10,8,2,12,0.00,1,,126
2013-8-18,75,67,59,60,57,56,84,69,53,30.26,30.21,30.15,10,10,9,7,1,,0.00,1,,144
2013-8-19,80,70,60,62,59,56,90,69,48,30.15,30.10,30.04,10,10,9,9,1,12,0.02,4,Rain,133
2013-8-20,86,74,61,63,58,51,93,63,32,30.18,30.12,30.08,10,9,4,9,2,13,0.00,3,,258
2013-8-21,86,72,57,65,60,55,93,69,44,30.22,30.15,30.04,10,8,2,7,2,10,0.00,3,,131
2013-8-22,88,77,66,66,64,62,100,72,43,30.06,29.97,29.88,10,7,1,24,6,31,0.27,3,Rain-Thunderstorm,274
2013-8-23,84,71,58,64,58,47,93,62,30,30.17,30.03,29.95,10,9,5,14,4,20,0.00,3,,299
2013-8-24,80,67,53,55,53,49,93,64,35,30.33,30.28,30.19,10,10,10,10,2,22,0.00,0,,197
2013-8-25,82,67,52,59,54,51,100,70,39,30.42,30.34,30.20,10,7,0,12,3,17,0.00,4,Fog,220
2013-8-26,89,76,62,68,61,58,90,66,42,30.21,30.07,29.94,10,10,5,16,4,18,0.04,4,Rain,257
2013-8-27,86,76,66,68,66,64,93,72,51,29.96,29.91,29.86,10,9,7,10,4,16,0.00,3,,264
2013-8-28,79,74,69,70,68,66,97,87,76,29.90,29.87,29.82,10,6,3,6,1,15,0.04,6,Rain,105
2013-8-29,88,77,66,71,67,62,93,68,43,30.02,29.96,29.90,10,8,4,14,2,20,0.00,5,,201
2013-8-30,88,76,63,69,65,62,93,72,50,30.01,29.95,29.80,10,6,0,14,4,18,0.00,4,Fog,37
2013-8-31,87,78,68,71,68,65,90,72,53,29.83,29.79,29.74,10,8,4,13,4,18,0.02,2,Rain-Thunderstorm,198